TimeGMT,TemperatureF,Dew PointF,Humidity,Sea Level PressureIn,VisibilityMPH,Wind Direction,Wind SpeedMPH,Gust SpeedMPH,PrecipitationIn,Events,Conditions,WindDirDegrees,DateUTC
12:00 AM,32,30,88,30.29,19,West,13.4,,,,Scattered Clouds,270,2013-02-07 00:00:00
12:00 AM,32.0,30.2,93,30.27,6.2,West,12.7,-,N/A,,Mostly Cloudy,270,2013-02-07 00:00:00
12:30 AM,32.0,30.2,93,30.27,6.2,West,11.5,-,N/A,,Mostly Cloudy,270,2013-02-07 00:30:00
1:00 AM,32.0,30.2,93,30.24,6.2,WSW,10.4,-,N/A,,Mostly Cloudy,250,2013-02-07 01:00:00
1:30 AM,32.0,30.2,93,30.24,6.2,WSW,10.4,-,N/A,,Mostly Cloudy,250,2013-02-07 01:30:00
2:00 AM,32.0,30.2,93,30.24,6.2,West,10.4,-,N/A,,Mostly Cloudy,260,2013-02-07 02:00:00
2:30 AM,32.0,30.2,93,30.24,6.2,West,11.5,-,N/A,,Mostly Cloudy,270,2013-02-07 02:30:00
3:00 AM,32.0,30.2,93,30.24,6.2,West,11.5,-,N/A,,Mostly Cloudy,260,2013-02-07 03:00:00
3:30 AM,32.0,30.2,93,30.24,6.2,WSW,11.5,-,N/A,,Mostly Cloudy,250,2013-02-07 03:30:00
4:00 AM,32.0,30.2,93,30.21,6.2,West,11.5,-,N/A,,Mostly Cloudy,260,2013-02-07 04:00:00
4:30 AM,32.0,30.2,93,30.21,6.2,WSW,10.4,-,N/A,,Mostly Cloudy,250,2013-02-07 04:30:00
5:00 AM,32.0,32.0,100,30.21,6.2,WSW,10.4,-,N/A,,Mostly Cloudy,240,2013-02-07 05:00:00
5:30 AM,33.8,32.0,93,30.21,6.2,West,10.4,-,N/A,,Mostly Cloudy,260,2013-02-07 05:30:00
6:00 AM,34,32,87,30.22,19,West,13.4,,,,Scattered Clouds,260,2013-02-07 06:00:00
6:00 AM,33.8,32.0,93,30.18,6.2,West,12.7,-,N/A,,Mostly Cloudy,260,2013-02-07 06:00:00
6:30 AM,33.8,32.0,93,30.18,6.2,WSW,11.5,-,N/A,,Mostly Cloudy,250,2013-02-07 06:30:00
7:00 AM,33.8,32.0,93,30.18,6.2,WSW,15.0,-,N/A,,Mostly Cloudy,250,2013-02-07 07:00:00
7:30 AM,33.8,32.0,93,30.18,6.2,WSW,13.8,-,N/A,,Mostly Cloudy,250,2013-02-07 07:30:00
8:00 AM,33.8,32.0,93,30.18,6.2,WSW,12.7,-,N/A,,Mostly Cloudy,240,2013-02-07 08:00:00
8:30 AM,33.8,32.0,93,30.15,6.2,WSW,11.5,-,N/A,,Mostly Cloudy,250,2013-02-07 08:30:00
9:00 AM,35.6,32.0,87,30.15,6.2,WSW,11.5,-,N/A,,Mostly Cloudy,240,2013-02-07 09:00:00
9:30 AM,35.6,32.0,87,30.12,6.2,WSW,11.5,-,N/A,,Mostly Cloudy,240,2013-02-07 09:30:00
10:00 AM,37.4,33.8,87,30.12,6.2,SW,9.2,-,N/A,,Mostly Cloudy,230,2013-02-07 10:00:00
10:30 AM,37.4,33.8,87,30.09,6.2,WSW,10.4,-,N/A,Rain,Light Rain,240,2013-02-07 10:30:00
11:00 AM,37.4,35.6,93,30.09,6.2,SW,9.2,-,N/A,Rain,Light Rain,230,2013-02-07 11:00:00
11:30 AM,37.4,35.6,93,30.06,6.2,SSW,6.9,-,N/A,Rain,Light Rain,210,2013-02-07 11:30:00
12:00 PM,38,37,94,30.06,5,SSW,6.7,,,Rain,Light Rain,200,2013-02-07 12:00:00
12:00 PM,39.2,37.4,93,30.04,5.0,SSW,6.9,-,N/A,Rain,Light Rain,200,2013-02-07 12:00:00
12:30 PM,39.2,37.4,93,30.04,5.6,South,4.6,-,N/A,Rain,Light Rain,190,2013-02-07 12:30:00
1:00 PM,39.2,37.4,93,30.01,6.2,SW,10.4,-,N/A,Rain,Light Rain,230,2013-02-07 13:00:00
1:30 PM,39.2,37.4,93,29.98,6.2,WSW,15.0,-,N/A,Rain,Light Rain,250,2013-02-07 13:30:00
2:00 PM,41.0,39.2,93,29.95,3.1,SW,11.5,-,N/A,Rain,Light Rain,230,2013-02-07 14:00:00
3:00 PM,42.8,41.0,93,29.89,2.8,West,15.0,-,N/A,Rain,Light Rain,260,2013-02-07 15:00:00
3:30 PM,44.6,42.8,93,29.92,3.7,WNW,17.3,-,N/A,Rain,Light Rain,300,2013-02-07 15:30:00
4:00 PM,42.8,41.0,93,29.95,6.2,North,16.1,-,N/A,Rain,Light Rain,350,2013-02-07 16:00:00
4:30 PM,39.2,39.2,100,30.01,5.6,NNE,16.1,-,N/A,,Light Drizzle,20,2013-02-07 16:30:00
5:00 PM,39.2,37.4,93,30.04,6.2,North,13.8,-,N/A,,Mostly Cloudy,350,2013-02-07 17:00:00
5:30 PM,37.4,35.6,93,30.06,6.2,NNW,15.0,-,N/A,,Mostly Cloudy,330,2013-02-07 17:30:00
6:00 PM,37,35,92,30.12,12,NNW,13.4,,,Rain,Light Rain,330,2013-02-07 18:00:00
6:00 PM,37.4,35.6,93,30.09,6.2,NNW,12.7,-,N/A,,Mostly Cloudy,330,2013-02-07 18:00:00
6:30 PM,37.4,35.6,93,30.12,6.2,NNW,12.7,-,N/A,,Mostly Cloudy,330,2013-02-07 18:30:00
7:00 PM,35.6,35.6,100,30.12,6.2,NW,11.5,-,N/A,,Mostly Cloudy,320,2013-02-07 19:00:00
7:30 PM,37.4,35.6,93,30.12,6.2,WNW,9.2,-,N/A,,Mostly Cloudy,300,2013-02-07 19:30:00
8:00 PM,37.4,35.6,93,30.12,6.2,WNW,9.2,-,N/A,,Mostly Cloudy,290,2013-02-07 20:00:00
8:30 PM,35.6,33.8,93,30.15,6.2,West,11.5,-,N/A,,Mostly Cloudy,280,2013-02-07 20:30:00
9:00 PM,37.4,35.6,93,30.15,6.2,West,13.8,-,N/A,,Mostly Cloudy,280,2013-02-07 21:00:00
9:30 PM,35.6,35.6,100,30.15,6.2,West,11.5,-,N/A,,Mostly Cloudy,280,2013-02-07 21:30:00
10:00 PM,37.4,35.6,93,30.15,6.2,West,11.5,-,N/A,,Mostly Cloudy,270,2013-02-07 22:00:00
10:30 PM,35.6,33.8,93,30.15,6.2,West,11.5,-,N/A,,Mostly Cloudy,270,2013-02-07 22:30:00
11:00 PM,37.4,35.6,93,30.15,6.2,West,15.0,-,N/A,Rain,Light Rain,280,2013-02-07 23:00:00
11:30 PM,39.2,37.4,93,30.15,6.2,WNW,15.0,-,N/A,Rain,Light Rain,290,2013-02-07 23:30:00